ECMWFNIL_sfc_temp_057.txt.gz
Temp
41 41 40 40 39 39 38 37 36 35 34 33 33 32 32 32 32 32 32 32 32 31 30 30 29 29 30 28 27 30 29 28 28 27 26 28 27 27 28 26 26 26
39 39 39 38 37 37 37 37 36 35 33 33 32 32 32 32 31 32 32 31 30 30 29 29 28 27 27 27 27 29 28 27 27 29 26 26 27 26 26 25 25 24
38 37 37 37 37 36 35 35 34 33 33 32 32 32 32 31 31 30 30 30 30 29 28 28 27 26 26 26 26 27 27 26 26 25 26 25 25 27 25 25 25 25
37 37 37 36 36 35 34 34 32 32 31 31 31 31 32 32 31 30 30 30 29 28 27 26 26 26 25 25 26 27 26 25 24 24 25 25 25 25 25 26 25 25
36 35 35 35 34 34 34 33 32 32 31 31 30 31 31 30 30 30 29 28 28 27 27 26 25 25 25 25 25 26 25 25 24 24 25 24 24 26 25 25 23 23
34 35 35 34 34 34 33 32 31 31 31 30 31 30 30 29 29 29 28 28 27 27 26 26 25 25 24 24 25 25 25 26 24 23 23 23 23 24 26 25 23 22
34 34 33 33 33 33 32 31 31 31 31 30 30 29 29 29 29 28 28 28 27 27 26 25 25 25 25 24 24 24 24 24 23 23 23 22 23 22 23 23 22 22
33 33 33 33 32 31 31 31 30 30 30 29 30 29 29 29 29 29 28 27 27 26 25 25 24 24 24 23 24 23 23 26 25 22 22 22 22 22 22 24 22 22
33 32 32 32 31 31 30 30 30 29 29 30 29 29 28 29 29 28 28 27 27 26 25 25 25 24 24 23 24 23 23 22 24 22 22 21 22 22 22 22 21 22
32 32 32 32 31 31 30 30 30 29 29 29 29 30 29 28 28 28 28 27 26 25 25 24 25 24 24 23 23 22 22 23 21 22 21 21 22 22 21 22 22 21
32 32 32 31 31 30 30 30 29 29 29 29 29 28 28 28 27 27 28 27 28 26 25 25 24 24 24 23 23 23 22 22 22 21 21 21 22 22 25 21 21 21
32 32 31 31 31 30 30 30 29 29 29 29 30 29 28 27 28 29 29 29 27 25 25 24 24 23 23 22 22 22 22 22 21 21 21 21 21 22 21 21 21 21
32 32 32 31 31 30 30 29 29 30 30 30 30 30 28 28 29 29 28 27 25 25 25 24 24 23 22 21 21 21 21 21 20 20 20 20 21 21 21 21 21 21
32 32 32 31 31 30 29 30 30 30 30 30 30 29 28 28 28 28 27 27 26 25 24 23 22 22 21 20 21 20 19 19 19 18 19 20 20 20 21 20 21 21
32 32 31 30 30 30 29 29 29 30 30 30 30 29 30 29 29 28 26 25 24 25 23 23 23 23 23 21 20 20 19 19 18 17 17 17 18 18 19 19 19 19
32 31 32 32 31 31 30 30 30 29 29 29 29 29 28 28 27 25 24 25 25 24 22 22 23 23 25 29 26 20 18 19 19 17 17 17 16 16 17 17 18 18
32 32 32 32 32 31 29 29 29 27 27 27 27 26 25 25 26 26 25 25 24 23 21 21 22 22 28 30 30 28 21 18 17 16 17 17 16 16 15 16 16 17
32 32 32 31 31 29 28 28 27 26 26 25 25 24 24 24 24 25 24 23 22 20 20 20 20 26 30 31 31 30 25 20 16 15 16 19 18 17 17 16 16 17
33 32 31 30 30 29 28 27 26 26 25 24 24 24 23 23 24 23 22 22 21 19 19 19 19 27 30 31 31 30 29 24 20 19 19 18 19 18 18 18 17 17
32 31 30 30 29 28 27 26 25 25 25 24 24 22 22 23 22 21 21 20 20 19 18 18 18 25 30 31 30 30 29 27 21 21 20 20 20 20 20 19 18 16
32 31 30 29 28 27 26 25 25 24 24 23 22 22 22 21 20 20 19 17 16 16 16 16 18 26 29 31 31 30 29 27 22 22 20 20 20 21 21 21 19 17
31 31 30 29 28 27 26 25 25 24 23 23 22 22 22 21 20 19 18 16 15 14 14 15 16 27 28 30 31 30 29 24 21 21 20 19 19 20 19 18 17 16
32 31 30 29 28 26 25 25 25 23 23 22 21 22 20 19 18 17 16 15 14 14 14 15 13 22 28 29 30 30 27 21 21 19 19 18 18 17 16 16 16 16
32 30 29 28 27 25 25 25 25 24 23 21 21 20 19 18 16 14 13 14 14 13 14 14 12 18 26 28 29 30 26 19 19 18 17 16 15 17 16 16 16 20
30 30 29 28 27 26 26 26 25 24 23 21 21 20 18 16 14 14 12 12 12 13 16 15 11 15 24 27 29 29 27 19 18 15 15 14 15 15 16 15 16 19
30 29 29 28 27 26 26 26 26 22 20 19 18 17 15 14 13 13 12 12 11 10 12 14 12 9 14 26 27 28 29 21 18 15 14 14 14 14 12 13 14 15

ECMWFNIL_sfc_temp_060.txt.gz
Temp
40 40 40 39 39 38 38 37 36 35 34 33 33 32 32 31 30 30 30 30 29 29 29 29 29 29 30 29 29 29 28 28 27 27 27 27 26 26 27 25 25 25
39 39 38 38 37 36 35 36 35 34 33 32 32 31 30 30 30 30 30 29 29 29 28 29 29 29 29 28 28 28 28 28 28 28 27 26 26 25 25 24 24 24
37 36 36 36 36 35 34 33 33 32 32 31 31 31 31 31 30 28 29 29 29 28 28 28 28 28 28 28 27 28 27 27 26 26 26 26 25 26 24 24 24 24
36 37 37 36 35 34 33 33 31 31 31 31 31 31 31 31 29 29 29 29 29 28 28 28 28 27 27 27 27 26 26 26 25 25 25 25 25 25 24 24 24 24
36 36 35 35 34 33 33 33 31 31 31 31 31 30 30 30 29 29 28 28 28 27 28 27 27 27 27 27 27 26 26 25 24 25 25 24 24 25 24 24 23 22
35 35 35 34 34 33 33 32 32 31 31 30 31 30 30 30 29 29 28 28 27 27 27 27 27 27 27 26 26 26 26 26 24 24 24 24 23 24 25 24 22 22
35 34 34 34 33 33 33 32 31 31 31 31 30 30 29 29 29 28 28 28 27 27 27 27 27 27 26 26 26 25 25 24 23 24 24 23 23 22 23 22 22 22
34 34 34 33 33 32 32 31 31 31 31 30 30 29 29 29 29 28 28 27 27 27 27 28 29 27 26 26 26 25 25 26 24 23 23 22 22 21 22 24 22 21
34 34 33 33 33 32 32 31 31 30 30 30 30 29 29 29 29 28 28 27 27 28 29 29 28 27 26 26 25 25 24 24 24 23 23 22 22 22 21 21 21 21
34 33 33 33 33 32 31 31 31 30 30 30 30 29 29 28 28 28 28 28 29 29 29 27 26 26 26 26 25 24 24 24 23 22 21 21 21 20 20 19 19 19
33 33 33 33 33 32 31 31 30 30 30 30 29 28 28 28 28 28 29 29 29 29 28 28 28 28 27 25 24 23 23 23 22 21 20 20 20 20 23 19 19 18
33 33 33 33 33 32 31 31 30 30 29 29 29 29 28 29 28 28 28 28 29 29 29 28 28 28 27 25 23 23 22 22 21 20 20 19 19 19 20 19 18 18
34 33 33 33 32 32 31 30 30 30 29 29 29 30 29 28 28 28 29 29 29 29 29 28 27 25 24 23 22 21 21 21 20 20 19 18 18 18 18 18 18 18
34 33 33 33 32 31 31 30 30 30 30 29 28 29 29 29 29 30 30 29 29 29 29 28 27 26 25 23 22 21 21 20 20 19 19 18 18 18 18 17 18 18
33 33 32 31 31 30 30 30 30 31 30 28 29 29 30 30 30 29 28 29 29 29 27 27 27 26 25 23 22 23 22 20 19 19 19 18 17 17 17 17 17 17
34 33 32 31 30 30 30 30 30 30 29 28 28 28 28 29 29 29 29 29 28 28 27 27 26 25 26 29 27 23 21 20 19 18 18 18 18 17 17 17 17 17
34 33 32 30 31 31 30 30 30 29 27 28 27 26 26 27 28 28 28 28 28 27 26 25 24 24 29 32 31 30 22 19 18 18 18 18 17 17 16 17 17 17
33 33 31 31 31 29 29 29 28 26 26 26 27 27 27 27 27 27 28 28 27 26 26 26 25 27 31 32 32 32 27 20 18 17 17 18 18 17 17 17 17 17
33 32 31 30 30 30 29 28 27 26 26 26 26 27 26 25 27 27 26 26 25 25 25 25 25 29 31 33 33 33 31 24 17 17 17 17 18 17 17 17 16 16
32 31 30 30 30 29 28 27 26 26 27 27 26 26 25 25 25 25 25 25 25 25 25 24 24 28 32 33 33 33 32 27 18 18 18 17 18 18 17 17 17 16
32 31 30 30 29 28 27 26 26 26 26 26 26 26 25 24 25 24 24 23 23 24 24 23 22 27 32 33 33 33 33 30 19 20 19 19 19 18 18 17 17 17
32 31 30 29 29 27 27 27 26 26 26 26 25 25 25 25 25 24 23 22 22 22 22 21 21 28 31 33 33 34 33 27 20 21 20 19 18 19 18 18 18 18
32 31 30 29 28 27 26 27 27 26 26 26 24 25 24 24 24 23 23 22 21 20 20 22 20 26 31 32 33 34 32 23 20 20 19 18 18 19 18 18 17 17
32 31 30 29 28 27 27 27 28 27 26 25 25 24 24 24 24 22 22 21 20 19 20 20 19 22 29 32 33 33 31 22 21 20 19 18 18 19 17 16 16 20
31 31 30 29 28 28 28 27 27 27 27 25 24 25 24 24 22 22 20 19 19 19 20 19 17 19 28 31 32 33 31 22 20 19 18 17 16 16 17 16 15 18
31 30 30 30 29 29 28 27 27 25 24 23 22 22 22 21 20 20 20 19 18 16 16 17 16 14 19 30 32 32 33 23 19 18 17 16 15 15 13 14 14 14

ECMWFNIL_sfc_temp_063.txt.gz
Temp
39 39 39 39 38 38 37 36 36 36 35 35 35 34 34 32 31 31 30 30 30 30 30 30 30 30 30 29 29 29 29 28 27 27 27 27 26 26 26 25 25 25
38 39 39 38 37 36 36 37 36 36 35 35 34 33 32 31 31 31 30 30 30 30 29 29 29 29 29 29 29 29 28 28 27 28 27 26 26 26 25 25 25 25
37 37 37 37 37 36 36 35 35 35 35 34 32 32 31 31 30 30 30 30 30 29 29 29 29 29 29 28 28 29 28 27 27 26 27 26 26 26 25 25 25 24
37 37 37 37 36 36 35 34 33 33 32 31 31 31 31 31 30 30 29 30 29 29 28 28 28 28 28 28 28 28 27 27 27 27 26 26 26 25 25 25 25 24
36 36 36 36 35 35 34 34 33 32 32 32 31 30 30 30 30 29 29 29 29 28 28 28 27 27 27 27 27 27 26 26 26 27 27 25 25 25 25 25 24 23
36 36 35 35 35 34 34 34 33 32 32 30 31 31 30 30 30 29 29 28 28 29 28 28 28 27 27 27 27 27 26 26 26 26 26 25 24 25 25 24 24 23
35 35 34 34 33 34 34 34 33 32 31 31 30 30 30 29 29 29 29 29 28 29 29 28 28 27 26 26 26 26 26 26 25 26 25 24 24 23 23 23 23 23
35 35 34 33 33 33 34 34 33 32 31 30 30 30 30 30 29 29 29 29 29 28 28 28 27 27 26 26 26 25 25 26 26 25 24 23 24 23 23 23 23 22
35 34 33 33 33 33 33 32 32 31 30 31 31 30 30 30 30 29 29 29 28 28 28 27 27 27 26 26 26 26 25 25 26 25 25 23 23 22 22 22 21 21
34 34 33 33 33 33 33 31 31 31 31 31 31 30 30 29 29 29 28 29 28 27 27 28 27 26 26 26 27 27 26 26 25 25 25 23 23 21 21 21 21 20
34 34 33 33 34 33 32 32 31 31 31 31 30 30 30 29 29 29 29 29 29 28 27 27 27 27 26 27 27 27 27 27 25 25 24 22 22 22 23 21 20 21
35 34 34 34 35 34 34 33 32 32 31 30 30 30 30 30 30 29 30 30 30 29 29 28 29 28 26 26 26 27 27 27 25 25 24 22 21 21 21 20 20 20
35 34 35 35 35 35 35 33 32 32 31 31 31 31 31 30 30 30 30 30 30 30 29 29 30 28 27 27 28 27 27 26 24 23 21 20 20 20 20 20 20 20
35 36 36 36 36 35 34 33 32 32 32 32 31 31 31 31 31 30 30 30 30 30 29 28 29 29 28 27 27 27 26 25 23 22 21 21 19 19 19 19 19 19
36 36 36 35 34 33 33 32 32 32 32 31 31 31 31 31 31 31 30 30 30 30 29 29 28 28 29 27 26 26 26 24 22 22 23 22 19 19 18 19 18 19
35 35 35 34 33 33 33 32 32 31 31 30 30 31 31 30 30 30 30 29 29 29 29 29 28 29 29 30 30 26 26 25 23 23 23 21 19 18 18 18 18 18
35 34 34 33 33 33 31 31 31 30 29 29 29 29 29 29 29 29 29 29 29 28 28 28 28 29 30 32 32 31 27 26 24 22 21 20 19 18 18 18 18 18
34 34 33 33 32 31 31 30 30 29 29 28 28 28 28 28 28 29 29 29 29 28 28 28 28 30 32 33 34 33 30 26 24 22 20 20 20 19 19 18 17 18
34 33 32 31 31 31 30 29 29 29 28 28 27 28 27 27 28 28 28 28 28 28 27 28 28 31 33 34 35 34 32 28 23 22 20 20 21 19 18 17 16 17
33 32 31 31 31 30 29 29 28 28 29 28 28 27 27 27 27 27 27 27 28 28 27 27 27 30 33 35 35 35 34 30 22 21 21 21 21 19 18 17 17 16
32 32 31 30 30 29 29 28 28 28 28 28 28 28 27 26 27 26 26 26 26 26 27 26 27 30 33 35 35 35 35 32 22 21 21 20 20 19 18 17 17 17
31 30 30 30 30 29 28 28 28 28 28 28 27 28 27 27 27 26 26 25 26 24 25 25 27 31 32 34 35 36 36 30 21 21 20 19 18 18 18 18 18 17
32 31 30 30 29 28 28 28 28 27 28 28 27 28 27 26 26 26 26 25 25 24 24 25 25 29 32 33 35 36 35 28 22 21 20 18 18 18 18 18 17 17
32 31 30 30 29 28 28 28 29 29 28 28 27 27 26 26 26 26 25 25 24 23 24 24 24 27 31 32 34 35 34 28 23 22 20 19 18 19 18 17 18 20
32 32 31 30 29 29 29 28 29 29 29 27 27 27 27 26 25 25 24 24 23 24 25 24 23 25 30 31 33 35 34 28 24 21 20 20 20 19 19 18 17 19
31 31 31 30 30 29 29 29 29 28 27 27 26 26 26 25 24 24 23 24 23 21 21 22 22 21 23 30 32 34 35 29 23 21 20 20 20 19 17 16 17 16

ECMWFNIL_sfc_temp_069.txt.gz
Temp
46 45 44 44 44 43 43 43 43 41 41 41 40 40 39 39 36 37 37 37 37 37 36 36 36 36 36 37 38 38 39 37 37 37 37 37 36 35 34 34 35 36
45 44 44 44 44 44 44 44 43 42 41 40 41 40 39 37 36 36 36 36 36 36 35 36 36 36 36 37 37 37 36 36 35 35 35 35 35 35 34 34 34 34
44 43 43 43 43 43 43 43 42 42 41 40 39 39 37 36 35 36 36 36 35 35 35 35 36 36 36 36 36 37 36 35 34 34 35 34 35 34 33 33 33 34
44 44 43 43 44 43 43 41 40 40 38 37 38 37 36 35 35 35 35 34 35 34 34 35 35 35 35 35 36 37 36 36 35 35 34 34 34 33 33 33 32 32
43 43 43 43 43 42 41 40 40 39 38 37 36 36 36 35 34 34 34 34 34 34 34 34 34 34 35 35 36 35 35 34 33 34 34 33 33 33 32 33 32 31
42 43 43 43 42 41 40 40 40 39 38 36 36 36 36 35 35 34 34 34 34 34 34 34 34 34 35 35 35 35 34 34 33 34 33 32 32 32 32 32 32 31
41 41 41 41 40 40 40 40 39 38 38 36 35 35 35 34 34 34 34 34 34 34 34 34 33 33 34 35 35 34 33 33 33 33 32 31 31 31 31 32 32 31
41 41 41 40 40 39 39 39 38 38 36 34 35 35 35 35 35 34 34 34 34 33 33 33 33 33 33 34 34 32 31 31 32 32 31 30 30 29 30 29 30 29
40 40 40 39 39 39 39 38 38 36 35 35 35 34 34 35 34 34 34 34 34 33 33 33 33 33 33 33 32 32 32 31 31 31 30 29 29 29 28 28 28 29
40 40 39 39 39 39 39 38 37 35 34 35 35 34 34 34 34 34 33 34 33 33 33 33 32 32 32 33 33 33 32 31 31 31 31 30 30 29 28 28 28 28
40 40 39 39 39 39 38 37 35 34 34 35 34 33 33 33 33 33 33 33 33 33 33 33 33 33 32 32 33 33 33 31 31 30 30 30 30 29 28 28 28 28
40 39 39 39 39 39 38 36 35 34 34 34 34 33 32 33 33 33 33 34 34 33 33 33 33 33 33 32 32 32 32 31 31 31 30 30 30 29 29 29 28 29
40 39 39 39 38 38 37 36 34 34 34 33 33 33 32 32 33 33 33 34 34 34 34 33 33 33 33 32 31 31 31 31 31 31 30 29 29 29 29 29 29 29
40 40 39 39 38 38 36 35 34 33 34 34 33 33 33 33 33 33 34 34 34 34 34 33 33 32 32 32 32 32 31 31 31 30 30 29 28 28 28 28 29 29
39 39 39 38 37 36 35 34 34 34 34 34 33 34 34 34 34 34 33 33 33 33 33 33 32 32 32 32 31 31 31 31 30 30 30 28 28 27 28 28 28 28
39 38 38 37 36 35 34 34 34 34 33 33 33 33 34 33 33 33 33 33 32 32 32 32 32 32 31 33 33 31 31 30 30 29 29 29 28 27 27 27 27 28
38 37 37 35 35 35 34 33 33 33 32 31 31 31 32 32 32 32 32 33 32 32 31 31 32 32 33 35 35 34 31 30 29 28 29 29 29 28 27 26 26 27
37 36 36 35 35 34 33 32 32 32 31 31 31 31 31 31 31 32 32 32 32 31 31 31 31 32 35 35 36 35 32 30 29 28 28 28 29 28 28 28 27 26
36 36 35 34 34 33 33 32 31 31 30 30 30 31 30 29 31 31 31 31 31 31 30 30 30 33 35 36 36 36 35 31 28 28 27 28 29 29 28 28 27 26
35 34 34 34 34 33 32 31 31 30 30 31 31 30 29 29 29 30 30 30 30 31 30 30 30 33 36 36 36 36 35 33 28 27 27 28 29 29 28 28 28 27
34 34 34 33 33 32 32 31 31 30 30 30 30 29 29 29 29 29 28 28 28 29 30 29 29 34 35 36 36 36 36 35 29 27 27 27 28 29 28 29 29 28
33 32 32 32 32 31 31 31 30 30 29 30 30 30 29 29 29 28 28 27 28 27 28 27 28 34 35 36 36 36 36 33 31 28 27 27 27 28 29 29 29 28
33 32 32 31 31 30 30 30 29 29 29 30 29 29 29 28 28 28 28 27 26 26 26 27 27 32 35 35 35 36 35 32 32 30 28 27 27 28 29 29 29 28
32 31 30 30 30 30 30 30 30 30 29 29 29 28 28 27 27 27 27 27 26 26 26 26 26 30 34 34 35 35 34 31 31 31 29 29 28 29 29 29 28 27
31 31 30 30 30 31 30 29 29 29 29 29 29 28 28 27 27 27 26 26 27 27 28 27 26 28 33 34 34 34 33 31 31 31 30 29 29 28 29 28 28 27
31 31 31 31 31 30 30 30 30 28 28 28 28 28 28 28 27 28 26 26 26 26 26 27 26 26 29 33 33 34 34 32 31 31 29 29 29 29 29 29 28 26

ECMWFNIL_sfc_temp_072.txt.gz
Temp
51 50 49 48 48 48 47 48 49 49 49 50 49 49 48 48 45 44 45 47 48 50 49 49 50 49 48 49 50 52 52 50 50 50 49 50 50 48 47 47 48 50
51 51 50 49 48 48 48 50 49 47 47 48 49 49 49 47 45 45 45 46 47 48 47 47 48 48 47 48 48 50 49 49 46 45 47 47 47 46 45 45 46 47
51 50 49 48 48 48 49 49 47 46 46 47 48 48 47 46 44 44 44 46 46 46 45 46 46 46 47 47 47 49 48 46 45 46 47 46 46 46 45 45 45 45
51 51 50 49 50 50 48 46 46 46 46 45 46 46 44 42 42 42 43 44 46 45 45 45 45 46 46 46 47 48 46 47 46 46 46 46 45 44 43 43 42 42
50 50 50 50 50 48 47 45 44 45 45 44 44 45 44 42 42 42 43 45 46 45 45 44 45 45 45 46 47 47 46 45 45 47 46 44 43 42 42 43 42 41
50 51 51 50 48 45 45 44 44 44 45 45 44 44 43 43 43 43 43 45 45 45 44 45 45 45 46 46 48 47 46 45 44 44 43 42 41 41 40 42 41 41
49 49 49 48 46 46 45 45 45 45 46 45 43 41 42 42 43 44 45 45 45 45 45 45 45 45 46 46 47 45 45 43 42 43 42 41 41 39 40 40 41 40
49 49 48 46 45 44 45 45 44 43 43 42 41 42 41 41 43 44 45 45 45 45 45 45 44 44 44 46 45 43 41 40 41 42 41 41 40 39 39 39 39 38
49 47 45 44 44 45 45 44 43 43 43 42 42 42 42 42 42 44 45 45 45 44 44 44 44 43 44 45 44 43 41 40 41 41 41 40 40 40 39 38 37 36
48 47 46 44 44 45 45 45 45 45 44 43 42 41 40 41 42 43 44 45 44 44 44 43 43 43 43 43 42 41 40 39 40 40 41 41 41 40 37 36 36 34
47 47 46 44 43 43 43 44 45 45 43 41 40 40 40 41 40 42 43 44 43 43 43 43 43 42 41 41 41 42 41 40 39 40 41 41 40 38 34 34 34 34
46 46 46 45 44 44 43 43 43 43 42 40 39 38 40 40 39 40 41 43 44 44 43 43 42 41 41 41 41 41 41 40 40 41 41 39 37 35 33 34 33 34
45 45 45 45 45 45 43 42 42 43 42 40 39 38 39 39 38 39 41 43 43 43 41 41 41 41 41 41 41 40 40 40 40 39 38 36 34 33 33 33 33 33
45 45 45 45 45 45 42 41 41 41 40 40 39 38 38 38 38 38 39 41 41 40 40 41 41 41 42 41 40 40 39 39 38 38 36 34 33 33 32 32 32 32
46 45 44 43 43 42 40 40 40 39 38 39 38 38 38 37 38 38 38 39 40 40 38 38 39 39 40 39 39 39 40 39 38 37 36 34 32 31 31 31 31 32
46 45 44 42 41 41 42 41 39 38 37 36 36 37 37 37 37 37 38 38 38 38 37 36 37 38 37 36 38 39 39 38 38 37 36 34 32 30 30 30 30 31
46 45 44 41 41 41 40 38 37 36 36 35 35 37 36 35 36 37 38 39 38 36 36 36 37 36 35 37 37 37 39 38 36 34 34 32 31 30 29 29 30 30
45 44 42 41 40 39 37 35 35 35 35 34 34 34 35 34 35 35 36 37 37 36 36 35 35 35 36 37 37 37 36 35 34 32 31 32 31 30 31 30 30 30
45 43 42 40 37 37 36 35 34 34 33 33 33 34 34 33 33 34 35 35 35 35 34 35 34 35 36 37 37 37 36 35 34 33 31 31 31 30 30 31 31 30
44 40 39 38 38 37 36 34 34 33 34 34 33 33 32 32 33 33 34 34 34 34 35 34 34 34 36 37 37 36 36 35 33 32 31 30 30 30 30 31 31 31
41 41 39 38 37 36 35 34 33 34 33 33 33 32 31 31 31 32 32 33 33 33 33 33 33 35 36 37 37 37 36 35 31 30 30 29 30 30 30 31 32 32
40 38 38 37 37 35 34 33 33 32 32 33 33 33 32 32 33 33 31 31 31 30 30 30 32 35 36 37 37 37 37 33 30 29 29 29 29 31 31 32 32 32
41 39 38 36 36 34 33 33 32 32 32 32 31 31 31 31 31 31 31 30 29 29 29 30 29 33 36 37 37 37 36 33 30 30 30 29 29 30 31 31 31 31
40 37 36 35 34 33 33 33 33 33 31 32 31 30 30 30 30 29 30 29 29 29 29 28 28 32 36 36 36 37 35 33 33 32 31 31 31 31 31 30 30 30
38 37 35 34 34 34 33 33 32 32 32 32 32 31 30 30 30 29 28 29 29 28 29 29 28 30 35 36 36 37 35 34 34 34 33 33 34 34 34 33 32 32
36 35 34 34 33 33 34 34 33 32 31 31 31 31 30 29 29 29 27 28 28 28 28 29 28 28 32 35 36 36 36 34 35 34 33 33 34 34 34 34 33 33

ECMWFNIL_sfc_temp_075.txt.gz
Temp
55 56 54 54 54 55 54 54 54 53 52 52 51 50 49 49 49 47 48 49 48 49 50 51 52 53 52 53 54 55 56 55 55 54 52 52 50 49 49 49 50 51
54 54 55 55 54 54 54 54 54 53 52 52 51 50 50 49 49 48 48 48 48 48 49 50 50 51 51 52 52 52 52 51 49 49 49 48 48 47 47 46 46 47
54 53 53 53 53 53 53 53 52 51 51 50 49 48 48 49 48 48 48 48 48 48 48 48 48 49 49 50 50 50 50 48 47 47 48 47 47 47 46 46 45 44
54 54 53 52 52 53 53 52 51 49 48 47 48 48 48 46 47 46 46 46 47 45 46 46 45 45 47 48 48 49 48 48 47 47 46 46 46 45 44 44 43 43
54 53 53 53 53 53 52 50 48 47 46 47 48 46 46 44 43 44 45 45 45 43 44 45 45 45 46 47 48 48 47 46 46 46 46 44 44 43 43 43 42 41
54 54 53 52 52 51 51 50 48 46 45 45 46 46 44 43 43 43 43 44 44 44 43 43 44 45 46 47 47 47 47 46 46 45 45 44 43 43 42 43 43 42
53 53 53 53 51 50 49 48 48 46 45 45 46 45 44 43 43 43 43 44 44 44 44 44 44 45 46 46 47 46 47 46 45 45 44 43 42 42 43 44 43 41
53 52 52 52 50 49 48 47 47 46 45 44 44 44 43 43 43 42 43 44 44 44 43 43 44 45 46 47 47 45 44 43 43 44 44 42 42 41 42 41 42 40
52 50 50 49 49 48 48 48 46 46 45 43 43 43 43 43 43 43 43 43 44 43 44 44 44 45 47 46 46 44 43 42 43 44 43 42 41 41 41 41 41 40
50 49 49 48 48 48 47 47 47 46 44 43 42 43 42 43 43 43 42 43 43 43 44 44 44 45 46 46 45 44 43 43 44 44 43 43 42 41 41 41 40 38
49 49 48 47 47 46 47 47 46 45 43 42 43 42 42 43 43 43 42 41 40 41 43 44 44 45 45 45 44 44 44 43 43 43 43 43 43 42 39 41 40 38
48 48 48 47 46 46 47 47 46 44 42 43 43 42 42 42 42 42 42 42 42 42 43 44 44 45 45 44 44 44 43 43 43 43 43 43 42 40 40 39 38 36
48 48 47 47 46 46 46 46 45 44 43 42 42 41 41 41 42 42 42 43 43 43 43 43 44 45 44 44 43 43 43 42 42 42 42 41 39 38 38 38 37 36
48 48 48 47 47 46 45 45 44 43 42 42 41 41 41 41 41 41 41 43 43 43 43 44 44 44 44 43 42 43 42 41 41 40 39 38 38 37 37 36 36 34
48 48 48 47 46 45 45 43 43 43 41 40 39 40 40 41 41 40 40 41 42 42 42 42 42 42 42 42 42 41 41 40 40 39 39 37 36 35 34 34 34 34
48 47 47 46 46 44 44 43 43 41 41 40 39 39 39 40 40 40 40 39 40 41 41 40 41 41 39 40 41 41 40 39 39 39 38 37 35 33 32 33 32 32
47 46 46 45 45 44 44 42 41 39 40 38 37 37 38 38 39 38 38 39 39 39 39 39 40 39 38 40 41 41 40 39 38 37 37 36 35 33 31 31 31 31
47 46 45 44 43 42 42 39 39 37 37 36 36 35 35 36 36 37 38 39 38 39 37 37 38 38 39 40 40 40 39 39 37 35 34 35 34 33 31 30 30 30
46 45 44 43 42 41 39 38 36 36 35 35 35 35 35 35 35 36 37 38 37 37 36 37 37 38 39 39 39 40 39 38 36 35 34 34 34 33 32 31 30 28
45 42 41 42 41 39 38 36 35 35 35 35 35 35 34 34 34 33 34 35 35 35 35 36 34 36 38 38 39 39 39 39 35 34 34 33 33 33 32 32 31 30
44 42 41 40 39 38 37 36 35 35 34 34 34 34 33 33 33 32 33 33 33 34 33 33 35 36 37 38 38 39 39 38 35 34 34 33 34 33 33 32 31 31
42 42 39 38 38 37 36 35 35 34 33 34 34 34 34 34 33 33 32 32 32 32 32 32 32 36 37 37 38 38 38 35 34 33 33 32 31 32 32 32 32 31
42 41 39 37 37 35 34 34 34 34 34 34 33 33 33 32 32 32 32 32 31 31 31 31 31 35 36 37 37 38 36 33 32 31 31 29 29 30 31 31 31 31
42 39 37 36 35 34 34 34 35 35 34 34 33 32 32 32 32 32 32 32 31 30 31 30 30 33 36 37 37 38 35 31 31 30 29 29 29 30 30 30 31 31
40 38 36 35 35 34 34 33 33 34 34 34 33 33 32 32 31 30 30 30 30 30 31 30 29 31 35 36 37 37 34 32 31 31 30 30 30 30 30 30 30 31
38 36 35 35 34 34 34 34 35 34 33 33 32 32 31 31 31 30 29 29 29 29 30 30 29 30 33 36 37 37 36 34 33 32 31 31 32 32 32 32 32 32